Home   Weather   Carlisle   Past weeks

Flag for United Kingdom Past Weather in Carlisle, England, United Kingdom — Yesterday and Last 2 Weeks

Now
55 °F

Cool.


Feels Like: N/A
Forecast: 49 / 57 °F
Wind: N/A

Location: Carlisle

Current Time: Sep 25, 2016 at 10:02:14 AM

Latest Report: Sep 25, 2016 at 9:00 AM


Visibility: 8 mi

Pressure: 29.69 "Hg

Humidity: 81%

Dew Point: 50 °F

Location of CarlisleLocation

Past Weather in Carlisle — Graph

°F

Carlisle Temperature Yesterday

Maximum temperature yesterday: 66 °F (at 1:00 PM)
Minimum temperature yesterday: 58 °F (at 2:00 AM)
Average temperature yesterday: 62 °F

High & Low Weather Summary for the Past Weeks

 TemperatureHumidityPressure
High72 °F (Sep 15, 4:00 PM)100% (Sep 15, 7:00 AM)30.25 "Hg (Sep 15, 7:00 AM)
Low45 °F (Sep 17, 7:00 AM)50% (Sep 11, 2:00 PM)29.62 "Hg (Sep 25, 4:00 AM)
Average59 °F82%29.96 "Hg
* Reported Sep 10 8:00 AM — Sep 25 8:00 AM, Carlisle, Weather by CustomWeather, © 2016

Note: Actual official high and low records may vary slightly from our data, if they occured in-between our weather recording intervals... More about our weather records

Advertising

Carlisle Weather History for the Previous 24 Hours

Scroll right to see more
 ConditionsComfort  
Time TempWeatherWind HumidityBarometerVisibility
8:00 AM
Sun, Sep 25
56 °FCool.N/A85%29.66 "Hg7 mi
7:00 AM57 °FCool.N/A88%29.65 "Hg6 mi
6:00 AM56 °FCool.N/A90%29.63 "Hg7 mi
5:00 AM56 °FCool.N/A88%29.63 "Hg13 mi
4:00 AM58 °FCool.N/A91%29.62 "Hg11 mi
3:00 AM58 °FCool.N/A98%29.63 "Hg11 mi
2:00 AM59 °FCool.N/A97%29.63 "Hg8 mi
1:00 AM59 °FCool.N/A96%29.64 "Hg14 mi
12:00 AM59 °FCool.N/A97%29.65 "Hg5 mi
10:00 PM
Sat, Sep 24
62 °FCool.N/A80%29.66 "Hg11 mi
9:00 PM65 °FMild.N/A68%29.67 "Hg12 mi
8:00 PM64 °FMild.N/A70%29.67 "Hg9 mi
7:00 PM64 °FMild.N/A69%29.68 "Hg11 mi
6:00 PM65 °FMild.N/A67%29.70 "Hg11 mi
5:00 PM65 °FMild.N/A67%29.71 "Hg11 mi
4:00 PM65 °FMild.N/A67%29.74 "Hg12 mi
3:00 PM65 °FMild.N/A68%29.75 "Hg11 mi
2:00 PM65 °FMild.N/A67%29.75 "Hg11 mi
1:00 PM66 °FMild.N/A68%29.76 "Hg11 mi
12:00 PM65 °FMild.N/A69%29.77 "Hg11 mi
11:00 AM65 °FMild.N/A70%29.78 "Hg11 mi
10:00 AM63 °FMild.N/A72%29.80 "Hg10 mi
Weather by CustomWeather, © 2016

See weather overviewHow to use our weather pages